EW8549 Weather Reports


Display with metric or nautical units.
time (UTC)temp
F
wind
direction
speed
MPH
gust
MPH
rain 1hr
in
rain 24hr
in
rain mn
in
humidity
%
barometer
mb
20260505023058 64 184 0.0 0.0 0.00 0.00 0.00 34 1009.9
20260505021555 64 175 0.0 0.0 0.00 0.00 0.00 37 1009.5
20260505020051 65 175 0.0 0.0 0.00 0.00 0.00 51 1009.5
20260505014601 66 181 0.0 0.0 0.00 0.00 0.00 48 1009.4
20260505013042 67 181 0.0 0.0 0.00 0.00 0.00 50 1009.4
20260505011545 69 181 0.0 0.0 0.00 0.00 0.00 58 1009.2
20260505010032 70 181 0.0 0.0 0.00 0.00 0.00 57 1009.3
20260505004528 72 181 0.0 0.0 0.00 0.00 0.00 54 1009.2
20260505003022 74 200 0.0 0.0 0.00 0.00 0.00 50 1009.1
20260505001518 76 155 0.0 0.0 0.00 0.00 0.00 48 1009.2
20260505000015 77 197 0.0 0.0 0.00 0.00 0.00 46 1009.2
20260504234509 77 167 0.0 0.0 0.00 0.00 0.00 45 1009.2
20260504233005 78 228 0.0 0.0 0.00 0.00 0.00 45 1009.2
20260504231600 78 153 0.0 0.0 0.00 0.00 0.00 44 1009.3
20260504230056 79 201 0.0 7.0 0.00 0.00 0.00 43 1009.3
20260504224551 79 230 0.0 4.0 0.00 0.00 0.00 42 1009.2
20260504223046 80 221 0.0 8.0 0.00 0.00 0.00 40 1009.4
20260504221543 80 252 0.0 0.0 0.00 0.00 0.00 42 1009.7
20260504220038 80 232 0.0 5.0 0.00 0.00 0.00 41 1009.7
20260504214533 80 255 0.0 6.0 0.00 0.00 0.00 41 1009.8
20260504213029 79 296 0.0 8.0 0.00 0.00 0.00 42 1010.1
20260504211524 79 288 0.0 11.0 0.00 0.00 0.00 43 1010.3
20260504210033 80 246 0.0 12.0 0.00 0.00 0.00 42 1010.4
20260504204528 80 236 3.0 14.0 0.00 0.00 0.00 40 1010.5
20260504203011 80 254 0.0 7.0 0.00 0.00 0.00 42 1010.8
20260504201507 80 246 0.0 6.0 0.00 0.00 0.00 41 1010.9
20260504200002 79 231 1.0 8.0 0.00 0.00 0.00 41 1011.2
20260504194559 79 269 2.0 15.0 0.00 0.00 0.00 43 1011.4
20260504193056 79 148 0.0 10.0 0.00 0.00 0.00 41 1011.6
20260504191553 79 290 0.0 9.0 0.00 0.00 0.00 42 1011.8
20260504190047 79 160 0.0 8.0 0.00 0.00 0.00 43 1012.0
20260504184540 78 270 0.0 9.0 0.00 0.00 0.00 46 1012.1
20260504183036 78 247 0.0 12.0 0.00 0.00 0.00 45 1012.2
20260504181531 78 220 2.0 12.0 0.00 0.00 0.00 43 1012.3
20260504180026 77 214 0.0 10.0 0.00 0.00 0.00 45 1012.4
20260504174522 77 281 1.0 11.0 0.00 0.00 0.00 47 1012.5
20260504173018 77 176 0.0 2.0 0.00 0.00 0.00 49 1012.9
20260504171513 76 296 1.0 10.0 0.00 0.00 0.00 49 1013.0
20260504081536 52 205 0.0 0.0 0.00 0.00 0.00 1 1013.9
20260504044536 54 186 0.0 0.0 0.00 0.00 0.00 1 1015.2
20260504043031 55 186 0.0 0.0 0.00 0.00 0.00 1 1015.3
20260504041538 55 186 0.0 0.0 0.00 0.00 0.00 1 1015.4
20260504040023 55 186 0.0 0.0 0.00 0.00 0.00 1 1015.5
20260504034518 55 294 0.0 0.0 0.00 0.00 0.00 1 1015.7
20260504033013 55 294 0.0 0.0 0.00 0.00 0.00 1 1015.7
20260504031508 55 294 0.0 0.0 0.00 0.00 0.00 1 1015.7
20260504030004 54 294 0.0 0.0 0.00 0.00 0.00 1 1015.8
20260504024600 54 294 0.0 0.0 0.00 0.00 0.00 1 1015.7